Temp
17 18 19 19 19 19 19 19 19 19 18 20 21 21 21 22 23 22 29 29 28 27 27 28 29 30 31 32 29 30 30 28 29 28 26 23 26 27 29 30 29 29 31 29 26
19 19 19 20 20 19 19 19 20 19 19 20 21 21 21 22 21 28 28 27 27 27 29 30 32 31 32 32 32 32 29 28 30 25 23 23 25 28 30 30 29 28 29 27 26
18 19 19 19 19 19 20 20 20 20 20 21 21 21 22 21 27 32 28 27 27 27 29 30 31 33 32 33 32 31 28 29 26 25 25 24 25 29 30 30 31 29 28 28 27
18 18 18 18 19 20 21 21 21 21 21 21 21 22 21 19 31 29 27 27 27 27 29 31 33 33 33 32 32 31 29 29 25 25 26 25 28 29 30 30 31 31 29 28 29
18 18 18 19 20 21 21 22 23 23 22 22 22 21 19 28 30 27 27 27 26 28 31 32 33 33 32 32 32 31 29 29 27 25 25 26 26 29 30 30 31 30 29 29 29
18 18 19 20 20 21 22 23 24 24 23 23 22 21 23 31 27 27 27 26 29 29 31 32 33 33 32 32 32 30 29 29 28 27 26 25 25 28 28 30 29 30 30 30 30
18 18 19 20 20 22 23 24 24 25 24 23 21 19 27 30 27 27 26 28 28 30 33 31 32 33 33 31 32 31 29 29 29 28 24 25 25 25 29 29 30 30 30 30 29
18 19 19 20 21 23 23 24 24 25 24 22 21 20 31 26 27 26 28 28 28 29 31 31 31 33 33 32 31 31 31 28 28 28 26 24 23 23 27 28 30 30 30 29 29
18 19 19 20 21 23 24 22 22 22 22 21 21 25 31 26 28 29 29 31 29 30 30 29 31 33 32 32 33 31 32 30 28 29 29 28 28 27 25 27 29 30 30 30 30
18 19 20 20 22 23 23 21 20 20 19 19 21 27 30 32 30 29 29 30 31 32 31 32 33 33 33 34 32 33 33 31 30 30 29 29 29 28 25 23 28 30 30 30 30
18 19 20 21 22 23 21 20 26 27 24 31 32 31 32 31 30 31 30 31 32 33 32 33 33 33 34 34 33 33 33 32 30 30 29 30 29 28 28 23 24 28 30 31 30
18 19 20 21 22 23 23 30 28 27 29 31 30 30 31 32 31 32 31 32 32 32 32 32 32 34 34 33 33 33 33 31 30 30 30 30 30 30 28 27 26 26 30 31 31
18 19 20 22 22 23 24 28 24 25 30 31 31 32 32 32 32 32 33 33 32 32 32 33 34 34 33 33 33 34 33 32 32 30 31 30 31 29 29 28 29 27 25 29 31
17 18 19 21 22 22 27 24 24 24 31 31 32 33 32 33 32 33 33 33 32 32 33 33 34 32 33 33 34 34 33 33 32 32 30 32 30 31 30 29 28 29 27 29 30
17 18 19 20 19 26 25 23 24 26 31 33 33 32 33 33 33 32 33 33 33 32 32 33 33 33 33 34 34 33 32 32 33 33 33 32 33 32 31 30 30 30 28 27 29
17 18 19 18 18 22 22 23 25 30 30 32 33 32 32 33 33 32 32 33 33 33 33 33 33 34 34 34 34 33 32 32 33 33 33 32 33 33 33 32 32 32 31 31 30
17 19 19 17 26 20 22 27 30 30 32 32 32 33 33 33 32 33 32 32 32 32 32 33 33 34 34 33 33 33 34 32 32 32 33 33 33 33 33 32 32 31 32 31 31
17 19 18 17 18 19 24 29 29 32 32 32 33 33 33 34 33 33 33 33 33 33 34 33 32 33 34 35 34 33 35 34 31 32 33 33 32 33 33 33 31 30 31 32 32
18 20 19 19 18 18 28 29 30 32 33 32 32 32 33 33 33 33 33 33 34 34 33 33 33 34 34 34 35 33 33 35 34 33 32 33 33 34 33 33 32 32 31 31 31
15 20 23 18 18 22 28 27 31 31 31 32 32 33 33 33 32 33 33 34 34 34 35 34 32 34 33 34 33 34 35 33 34 31 31 33 32 33 33 32 32 32 32 31 30
17 24 20 18 20 26 27 29 30 31 30 31 32 32 33 34 33 33 34 34 35 34 34 35 34 33 33 33 34 33 34 34 34 33 32 32 33 34 33 32 32 32 31 31 30
19 24 21 20 26 27 28 28 23 30 30 30 31 31 32 33 33 33 33 34 35 34 33 34 35 33 34 33 33 34 34 34 33 32 33 32 33 34 33 32 31 31 31 30 29
21 23 21 21 26 27 27 27 28 29 30 30 30 31 32 32 31 33 34 33 33 34 34 34 34 32 32 33 33 33 34 34 35 35 32 32 33 33 32 31 31 31 31 29 28
20 24 25 25 25 26 26 27 28 29 30 30 30 31 31 31 32 32 32 32 32 34 25 32 35 33 33 33 34 32 33 33 34 33 33 33 33 33 32 31 30 30 30 29 29
20 23 21 25 25 25 25 25 26 27 28 29 29 29 30 30 31 31 32 31 31 25 31 34 33 33 33 32 33 33 32 32 32 33 32 33 33 34 32 32 31 30 30 29 29
19 21 22 23 23 23 20 25 26 27 26 28 28 29 30 29 31 31 32 32 32 31 32 33 32 32 32 32 32 31 32 32 32 32 32 33 32 31 30 29 29 29 29 29 29
17 18 19 21 23 23 25 25 25 24 25 25 26 27 28 29 29 30 31 33 34 32 32 33 32 31 31 31 31 30 32 32 32 33 32 32 33 30 28 28 28 28 28 29 28
Height
806 803 801 800 798 796 793 791 788 785 783 781 780 780 779 778 778 778 775 774 774 775 776 776 775 773 771 766 771 769 779 795 789 789 796 800 795 792 786 786 790 790 787 796 808
805 803 801 799 797 794 792 790 787 784 782 780 780 779 779 778 777 775 773 772 774 775 776 774 770 770 768 767 766 768 785 789 776 793 800 799 797 790 786 787 794 795 795 803 809
805 803 801 798 795 793 790 788 785 783 781 780 779 779 778 777 775 766 770 772 774 775 775 774 771 768 769 764 765 771 787 780 788 790 791 796 798 787 788 793 787 795 799 804 808
806 803 800 797 795 792 789 786 784 782 780 780 779 779 778 780 777 769 771 773 774 776 776 773 769 767 768 770 765 777 779 778 792 793 793 799 790 791 786 786 785 790 797 803 806
806 803 799 797 794 791 788 785 782 781 780 780 779 778 779 772 769 772 772 774 776 776 774 770 767 766 772 768 769 777 783 782 787 795 797 796 800 792 791 789 788 793 799 802 805
806 802 799 796 792 789 786 783 780 779 779 779 778 778 778 770 773 773 774 775 775 776 773 771 768 765 767 771 771 777 781 785 787 792 794 800 804 793 794 790 792 796 798 801 805
806 802 798 794 790 787 783 780 777 776 777 777 778 777 773 770 773 773 774 775 776 775 771 772 771 768 764 775 770 776 788 788 789 792 805 801 813 811 792 793 794 795 797 802 806
805 801 797 793 788 784 781 778 775 774 775 776 777 778 767 773 774 774 774 775 775 776 775 774 772 766 765 768 775 780 782 802 794 792 801 806 825 811 800 796 795 796 798 802 806
804 800 796 791 786 782 779 777 775 775 775 776 778 775 768 772 772 772 772 771 774 776 775 775 771 767 770 774 777 781 790 794 799 788 792 798 804 798 803 800 797 795 796 800 804
804 799 794 789 784 780 778 777 776 776 777 778 778 777 768 763 767 770 773 772 771 772 774 772 768 771 768 769 792 784 784 788 792 788 791 794 795 794 801 807 801 794 794 797 800
803 798 793 788 783 779 778 779 777 776 775 761 760 761 760 763 767 768 771 771 769 769 777 771 777 780 766 763 771 776 780 787 786 783 789 790 792 797 794 809 808 798 793 793 797
802 796 791 786 781 779 777 771 774 778 770 760 762 763 762 760 766 765 768 769 771 779 772 781 783 762 765 770 775 775 782 788 788 785 787 786 788 785 790 796 800 802 793 791 794
800 795 789 784 779 779 778 775 777 777 769 759 756 756 759 760 760 763 763 763 771 775 776 777 767 762 769 772 779 773 779 785 786 786 780 784 786 790 787 789 789 795 799 793 792
799 794 788 783 782 779 775 777 776 775 768 763 757 753 755 752 762 755 758 761 769 775 771 772 759 772 772 775 768 778 769 776 782 781 799 776 803 783 781 788 791 788 793 792 790
798 792 787 783 782 777 778 776 775 774 788 750 752 749 749 754 754 762 758 760 767 769 772 768 769 773 775 767 764 774 770 775 776 777 782 783 785 780 778 785 781 781 787 790 786
795 790 784 782 780 777 776 776 775 779 787 757 747 754 757 751 752 756 760 758 755 764 763 763 756 760 760 762 763 765 775 779 775 778 790 782 786 777 772 773 769 768 773 775 781
790 786 781 779 774 775 775 772 778 781 751 757 755 748 750 756 757 757 764 767 767 780 775 764 764 757 756 770 766 768 772 789 797 792 790 773 784 769 762 764 766 767 766 771 774
786 780 776 775 775 775 774 770 785 754 750 741 743 744 755 747 752 755 759 764 754 756 758 771 786 763 753 757 765 769 763 778 808 798 787 776 788 773 759 758 762 765 765 762 765
782 779 775 773 772 773 769 775 760 750 739 745 747 754 753 748 748 753 757 755 747 749 766 767 768 752 753 752 753 769 780 754 774 775 792 773 770 759 757 760 760 762 764 765 764
783 777 772 770 768 771 768 768 749 742 741 743 752 741 750 748 756 753 754 741 747 741 737 748 772 752 758 753 757 759 750 779 773 803 807 780 785 775 766 765 760 759 760 764 765
783 771 772 770 770 764 765 755 749 742 743 746 745 746 741 739 742 747 746 739 734 742 740 740 752 767 758 760 757 767 767 765 761 772 788 790 777 753 760 762 761 760 761 762 765
783 770 770 771 765 755 757 754 758 744 741 743 743 743 745 740 743 742 745 735 726 734 752 742 742 763 757 751 750 750 756 755 775 783 772 780 777 745 754 757 760 761 762 764 768
780 771 769 770 762 757 751 755 750 746 741 743 745 740 735 742 751 739 735 729 732 734 738 741 750 771 772 763 756 759 753 750 750 752 775 785 769 748 753 758 760 761 762 767 769
785 767 761 762 758 756 756 754 751 742 741 738 742 737 742 744 736 741 739 736 733 731 747 735 738 753 764 758 748 763 760 755 753 765 762 764 760 754 755 760 762 762 762 766 768
782 767 771 756 758 758 759 755 752 749 743 739 744 743 741 747 741 745 733 738 737 749 740 734 754 750 749 752 754 756 758 759 763 756 769 754 756 751 752 752 758 759 763 766 767
786 778 770 764 763 763 765 755 754 747 751 744 746 741 737 745 736 741 732 732 736 738 738 734 751 751 759 756 758 764 755 755 755 756 760 756 761 751 755 759 762 763 764 766 766
790 788 784 767 759 760 751 753 755 758 750 749 748 748 745 740 736 732 726 721 718 731 736 739 746 759 766 757 764 776 756 754 752 747 752 764 751 753 763 764 764 765 765 765 767
Wind_Speed
12 12 11 11 11 12 13 13 14 13 10 7 6 4 4 4 5 3 7 2 4 8 8 8 7 5 4 1 3 2 4 4 3 5 7 3 4 2 2 9 7 2 6 20 22
12 12 12 12 12 13 14 14 14 13 10 6 4 3 3 3 5 8 5 7 10 8 7 9 6 4 0 1 2 3 2 1 4 4 4 8 3 4 5 9 8 11 17 22 19
14 14 14 13 13 14 13 13 14 12 7 4 1 2 3 1 6 3 5 10 13 7 3 4 5 4 0 1 2 4 4 3 8 6 10 8 4 0 2 7 6 12 16 17 18
16 16 16 16 16 14 15 15 13 10 6 3 2 1 1 3 4 4 7 9 12 5 4 4 5 5 3 4 3 3 6 5 9 6 7 6 4 5 2 5 6 13 15 15 14
18 19 19 18 17 14 17 15 12 7 4 2 2 2 0 6 6 2 9 11 8 5 6 5 6 4 3 5 7 9 9 10 7 7 7 4 6 2 8 3 6 13 13 13 12
20 20 20 19 19 17 17 14 12 8 3 2 2 2 5 4 2 3 8 9 8 7 5 4 5 3 5 4 6 9 10 12 7 8 3 2 4 3 3 3 9 14 13 11 11
21 22 22 21 20 19 18 15 13 10 5 3 1 2 6 7 3 4 7 8 7 5 5 1 4 5 1 9 10 13 10 9 7 8 2 2 4 2 5 4 10 13 12 10 10
23 24 25 24 22 20 18 11 6 2 5 2 0 2 3 4 5 6 5 6 5 5 1 2 3 2 2 10 6 4 2 3 8 7 8 5 3 6 4 5 10 12 11 10 10
25 25 27 25 23 20 13 4 6 5 4 3 1 5 7 5 7 8 5 7 9 7 2 2 4 1 6 9 9 5 7 4 8 8 6 9 5 9 8 8 10 11 12 11 10
26 27 28 27 24 18 6 1 6 5 2 2 5 6 6 5 10 9 7 9 7 9 5 6 6 8 8 10 5 8 5 3 1 8 9 7 3 8 11 8 11 10 12 11 11
28 28 29 27 24 10 3 1 5 5 8 6 3 3 6 11 10 7 10 8 9 12 10 9 10 11 11 2 4 4 5 4 4 4 6 5 3 8 11 8 8 12 13 13 11
29 29 30 29 19 4 2 4 5 5 6 5 6 5 4 8 10 9 11 10 11 14 6 9 13 7 3 6 8 9 5 8 4 5 6 2 5 5 11 14 14 11 12 14 13
30 30 31 28 10 2 4 2 2 7 6 6 6 7 11 11 9 14 13 5 11 13 14 14 3 4 11 11 10 9 4 2 4 7 6 6 7 7 11 11 14 12 11 14 14
30 31 32 28 1 7 2 3 8 3 5 10 10 7 9 8 6 11 15 7 7 11 10 10 11 8 12 15 11 10 3 3 6 8 3 3 1 7 9 12 13 15 14 18 16
30 32 31 25 10 5 2 5 4 4 5 11 9 8 10 6 15 10 10 7 8 10 9 6 10 13 13 11 3 2 3 5 4 3 5 5 6 7 4 9 13 15 18 19 17
31 32 32 9 6 6 6 7 4 7 5 9 9 12 13 9 8 10 11 9 2 6 10 8 1 5 7 3 6 4 7 6 7 4 10 7 7 7 4 1 2 12 14 16 18
30 31 24 9 3 4 4 5 6 8 5 10 11 12 15 11 10 12 13 14 9 9 11 8 10 6 9 10 7 11 12 8 8 7 2 6 7 8 3 2 1 3 12 16 16
31 26 11 7 6 5 7 7 10 4 9 4 5 11 12 11 10 13 12 13 11 9 6 11 12 14 13 10 6 12 12 10 3 5 1 3 3 6 3 2 2 2 5 9 15
31 10 4 2 5 6 8 12 6 10 4 8 9 11 13 10 6 12 16 15 14 14 8 7 4 6 5 5 8 8 9 5 6 5 7 3 2 6 3 4 4 2 2 4 10
19 9 1 8 6 8 9 16 11 4 3 6 12 12 15 15 12 10 14 14 12 11 13 3 5 7 7 8 4 8 2 7 8 3 5 5 3 3 2 3 1 3 4 5 2
7 5 3 5 5 6 11 17 13 8 6 6 8 6 11 9 15 15 12 7 15 12 10 7 7 10 9 9 7 6 9 7 7 5 7 4 4 6 3 3 4 6 4 5 4
5 4 3 3 5 5 12 10 2 10 9 7 5 6 8 9 13 13 14 9 11 12 13 13 7 9 6 4 3 7 10 6 8 10 6 7 6 7 5 5 3 5 5 6 5
5 4 2 4 6 9 9 10 9 8 11 11 8 7 5 8 7 11 11 4 9 13 11 10 7 6 9 10 7 8 7 11 8 10 10 9 4 7 7 6 3 3 4 3 3
4 3 4 5 3 7 6 11 13 9 14 10 9 9 8 10 8 7 9 6 9 11 5 8 9 10 3 4 5 5 9 11 15 11 9 9 8 10 8 7 7 6 4 2 3
3 1 4 1 6 5 6 2 10 9 10 9 9 14 13 11 11 9 9 7 9 8 8 10 13 8 1 1 5 9 8 11 13 13 10 7 4 9 5 4 7 6 5 4 3
4 4 2 6 5 7 6 9 11 8 4 9 8 4 14 13 11 10 12 11 10 11 12 9 7 8 7 4 6 9 10 9 10 9 9 11 10 7 4 3 7 7 6 6 5
3 5 5 2 5 6 7 8 8 2 5 6 6 6 8 10 7 11 11 10 4 14 14 13 7 9 12 8 6 11 14 13 13 13 11 14 6 5 6 7 8 6 6 5 4
Wind_Direction
357 354 359 355 354 350 349 347 345 341 332 315 290 294 301 288 283 252 234 200 177 172 157 175 204 219 264 152 150 249 231 169 155 201 126 136 126 114 263 137 58 27 113 131 148
6 1 360 356 354 351 346 345 345 344 334 329 313 311 311 299 274 241 239 182 154 158 181 195 202 212 223 319 143 315 307 19 49 114 150 150 128 156 178 146 91 103 108 131 147
13 8 3 358 355 351 350 347 345 348 346 346 1 310 310 329 237 108 192 165 173 165 226 240 247 269 205 284 45 38 26 75 83 109 140 142 132 289 194 157 99 131 136 143 151
13 7 360 358 356 350 345 338 340 352 5 10 22 335 306 242 172 80 164 165 174 196 207 216 232 255 319 71 56 95 47 92 114 105 102 82 135 165 161 73 81 132 141 151 163
13 8 4 356 352 348 339 334 333 344 354 6 1 360 242 208 85 81 157 173 175 210 236 232 266 313 34 100 87 88 93 102 129 139 100 91 40 190 155 101 120 139 145 160 165
12 6 2 357 350 342 338 329 319 310 298 306 327 356 258 190 83 137 163 180 204 220 212 240 349 1 74 65 28 106 112 120 125 126 79 70 348 261 131 138 143 155 154 161 162
9 5 0 355 349 340 336 327 309 278 241 241 237 335 251 63 142 152 174 199 207 225 213 227 333 280 123 104 121 127 124 125 141 148 116 124 332 135 131 176 163 163 160 158 162
6 2 359 354 347 339 336 334 346 225 194 189 161 261 59 123 148 163 170 171 187 190 260 353 281 176 310 122 148 132 172 142 160 165 146 148 202 215 237 195 180 172 163 172 171
2 359 357 354 346 340 339 3 50 116 140 118 257 260 113 154 196 182 175 158 161 176 201 295 223 295 168 201 180 194 71 63 161 196 150 217 125 159 192 215 207 185 182 182 183
358 356 355 352 345 339 357 77 95 83 122 262 261 235 163 133 145 159 171 153 166 160 171 206 215 208 217 236 360 52 50 54 13 174 211 199 185 161 174 187 208 198 204 193 199
355 352 351 350 342 338 18 241 214 177 205 302 48 340 135 126 148 170 169 178 172 193 194 201 224 217 205 298 10 329 344 23 86 142 210 228 244 181 183 196 206 229 207 202 207
352 350 348 349 341 354 350 294 55 9 290 211 247 244 183 177 172 154 171 191 195 197 193 193 230 226 313 289 272 282 306 83 103 163 239 205 240 183 202 201 211 216 225 212 202
350 348 345 348 345 12 301 94 115 330 257 159 181 183 176 197 190 168 198 183 203 210 210 241 131 272 238 243 252 241 307 112 44 172 236 268 216 189 196 212 207 195 238 242 223
346 346 343 344 308 333 205 170 316 246 260 143 186 160 166 207 156 168 205 202 197 217 211 240 243 231 241 238 245 269 72 182 156 222 81 262 107 166 183 197 202 223 212 229 209
343 341 338 334 302 273 88 310 307 235 260 138 135 136 158 209 132 177 188 201 192 173 213 133 201 219 227 228 217 352 153 207 242 265 277 154 266 108 177 217 216 211 201 219 237
335 336 332 333 283 260 293 299 227 231 232 158 148 179 180 185 171 141 192 226 323 233 224 275 110 222 232 197 221 132 160 187 221 272 241 83 296 143 136 338 128 203 211 214 212
329 330 321 289 335 312 304 217 227 241 136 168 182 179 201 174 164 182 189 201 212 195 193 177 190 147 173 134 151 206 207 219 214 200 303 79 268 48 74 181 355 213 216 213 221
328 326 305 255 265 298 236 215 231 258 209 109 192 194 200 181 208 195 196 208 212 258 184 197 168 172 189 249 199 220 264 269 253 264 217 144 259 89 97 161 143 221 249 239 209
332 323 270 232 285 206 218 214 219 227 219 201 174 208 199 197 239 200 214 211 203 208 245 193 150 140 197 188 242 148 226 331 296 205 259 77 144 189 163 202 220 133 160 203 222
327 308 275 293 191 196 219 232 237 251 243 220 224 204 207 194 197 203 182 212 209 209 241 175 153 189 134 170 168 286 68 215 217 259 264 97 278 0 82 88 131 231 107 103 131
302 291 94 64 151 201 217 227 244 234 242 225 233 227 239 198 209 196 192 186 216 180 208 244 258 151 174 211 188 177 213 233 309 329 307 243 118 78 108 110 54 94 128 85 95
300 264 162 330 213 204 228 213 295 245 205 243 272 263 240 201 213 222 227 225 181 180 200 213 250 176 177 100 276 270 286 234 237 190 234 318 319 113 127 139 114 101 87 63 34
299 283 183 257 233 211 198 233 241 235 220 218 234 235 204 221 219 212 216 82 190 197 197 185 238 189 189 175 184 229 201 258 274 291 277 276 96 131 151 167 164 162 123 89 40
285 267 169 212 281 271 226 228 226 219 252 242 253 244 221 228 219 209 216 162 187 222 349 209 242 244 271 61 0 196 229 243 254 250 251 209 279 154 182 191 187 186 166 118 73
237 11 353 212 192 254 246 292 226 210 225 208 219 240 228 235 217 217 210 167 188 156 199 233 229 231 277 344 274 280 247 228 237 259 287 316 265 261 101 221 188 167 174 170 153
301 319 262 281 261 252 190 226 245 217 259 200 237 217 228 237 238 217 213 209 184 188 194 217 209 219 211 209 238 248 237 238 236 251 249 266 263 57 91 143 172 191 176 177 159
349 274 279 237 252 248 241 237 229 228 242 296 313 288 232 247 297 286 292 298 250 193 194 199 178 210 240 189 216 241 237 239 253 254 259 257 268 128 147 171 170 174 185 187 165